Location: Aressy
(43.2833°N, 0.3167°W)
Time: 21:07:55
(UTC+00:00)

Cosmos 1092 Rocket - Pass Details

Date: 28 January 2021
Orbit: 954 x 995 km, 83.0° (Epoch: 02 March)

Event Time Altitude Azimuth Distance (km) Brightness Sun altitude
Rises 18:26:10 0° 196° (SSW) 3,642 7.4 -14.3°
Reaches altitude 10° 18:28:42 10° 199° (SSW) 2,694 6.7 -14.8°
Maximum altitude 18:34:47 63° 280° (W) 1,070 4.5 -15.9°
Drops below altitude 10° 18:40:54 10° 2° (N) 2,694 6.2 -17.0°
Sets 18:43:26 0° 5° (N) 3,643 6.9 -17.4°
